Delhaven Orchards

*Note: All times are displayed in the local standard time of the station location.
**Rain - Equipment is designed to accurately record liquid precipitation; under conditions when precipitation is not in liquid form, the data displayed may not properly reflect rainfall values.

Date Max Temp
(°C)
Min Temp
(°C)
Avg Temp
(°C)
Rain (mm) Avg RH (%)
Sat, Dec 16, 2017 -0.6 -5.1 -2.7 0.0 99.4
Fri, Dec 15, 2017 -3.2 -20.4 -6.6 0.0 94.3
Thu, Dec 14, 2017 -6.8 -22.0 -13.1 0.0 95.6
Wed, Dec 13, 2017 -4.2 -15.0 -8.1 0.0 93.4
Tue, Dec 12, 2017 -0.7 -13.1 -7.6 0.0 85.1
Mon, Dec 11, 2017 0.0 -6.3 -3.0 0.0 96.7
Sun, Dec 10, 2017 -2.2 -7.3 -3.3 0.0 95.8
DateTime Avg Temp (°C) Rain (mm) RH (%)
Sun, Dec 17, 2017 17:00 1.0 0.6 100.0
Sun, Dec 17, 2017 16:00 1.1 0.8 100.0
Sun, Dec 17, 2017 15:00 1.1 0.4 99.5
Sun, Dec 17, 2017 14:00 1.3 0.0 97.5
Sun, Dec 17, 2017 13:00 1.0 0.0 99.0
Sun, Dec 17, 2017 12:00 0.3 0.0 100.0
Sun, Dec 17, 2017 11:00 0.2 0.0 100.0
Sun, Dec 17, 2017 10:00 -0.5 0.0 100.0
Sun, Dec 17, 2017 09:00 -0.9 0.0 100.0
Sun, Dec 17, 2017 08:00 -1.1 0.0 100.0
Sun, Dec 17, 2017 07:00 -2.2 0.0 100.0
Sun, Dec 17, 2017 06:00 -3.3 0.0 100.0
Sun, Dec 17, 2017 05:00 -3.0 0.0 100.0
Sun, Dec 17, 2017 04:00 -4.2 0.0 100.0
Sun, Dec 17, 2017 03:00 -5.3 0.0 99.3
Sun, Dec 17, 2017 02:00 -4.7 0.0 97.0
Sun, Dec 17, 2017 01:00 -4.6 0.0 97.8
Sun, Dec 17, 2017 00:00 -4.9 0.0 100.0
Sat, Dec 16, 2017 23:00 -3.5 0.0 100.0
Sat, Dec 16, 2017 22:00 -3.2 0.0 100.0
Sat, Dec 16, 2017 21:00 -3.0 0.0 100.0
Sat, Dec 16, 2017 20:00 -3.0 0.0 98.3
Sat, Dec 16, 2017 19:00 -3.1 0.0 97.5
Sat, Dec 16, 2017 18:00 -3.0 0.0 97.0
Sat, Dec 16, 2017 17:00 -3.0 0.0 99.3
Sat, Dec 16, 2017 16:00 -2.8 0.0 98.8
Sat, Dec 16, 2017 15:00 -2.5 0.0 98.5
Sat, Dec 16, 2017 14:00 -2.5 0.0 99.5
Sat, Dec 16, 2017 13:00 -2.9 0.0 100.0
Sat, Dec 16, 2017 12:00 -3.1 0.0 100.0
Sat, Dec 16, 2017 11:00 -2.0 0.0 100.0
Sat, Dec 16, 2017 10:00 -0.6 0.0 100.0
Sat, Dec 16, 2017 09:00 -0.8 0.0 100.0
Sat, Dec 16, 2017 08:00 -0.9 0.0 100.0
Sat, Dec 16, 2017 07:00 -1.3 0.0 100.0
Sat, Dec 16, 2017 06:00 -1.5 0.0 100.0
Sat, Dec 16, 2017 05:00 -2.0 0.0 100.0
Sat, Dec 16, 2017 04:00 -3.0 0.0 100.0
Sat, Dec 16, 2017 03:00 -4.2 0.0 100.0
Sat, Dec 16, 2017 02:00 -4.2 0.0 100.0
Sat, Dec 16, 2017 01:00 -3.8 0.0 97.3
Sat, Dec 16, 2017 00:00 -3.6 0.0 90.5
Fri, Dec 15, 2017 23:00 -3.8 0.0 88.8
Fri, Dec 15, 2017 22:00 -4.4 0.0 87.5
Fri, Dec 15, 2017 21:00 -4.3 0.0 94.5
Fri, Dec 15, 2017 20:00 -4.1 0.0 93.8
Fri, Dec 15, 2017 19:00 -4.0 0.0 95.5
Fri, Dec 15, 2017 18:00 -4.2 0.0 98.5


asterix Register now to access more data! asterix